SCP
0 -0 0 -0 -0 0 0 0 0 0 0 0 0 0 -0 0 0 0 0 0 0 0 0 0 0 0 0 0 0 -0 -0 -0 -0 0 0 0 0 0 0 0 0 0 0 0
-0 0 -0 0 0 -0 -0 0 0 0 0 0 0 0 0 0 0 -0 0 0 0 0 0 0 0 0 0 0 0 0 -0 -0 -0 -0 0 0 0 0 0 0 0 0 0 0
-0 -0 -0 0 -0 -0 -0 0 0 0 0 0 0 0 0 0 0 -0 -0 -0 0 0 0 0 0 0 0 0 0 0 0 -0 -0 0 0 0 0 0 0 0 0 0 0 0
-0 -0 -0 0 0 0 0 -0 0 -0 0 0 0 0 0 0 0 0 -0 -0 0 0 0 0 0 0 0 0 0 0 0 -0 0 0 0 0 0 0 0 0 0 0 0 0
-0 0 -0 0 0 0 0 0 0 0 0 0 0 0 0 0 0 0 0 0 0 0 0 0 0 0 0 0 0 0 0 0 0 0 0 0 0 0 0 0 0 0 0 0
-0 -0 0 0 0 0 0 0 0 0 0 0 0 0 0 0 0 0 0 0 0 0 0 0 0 0 0 0 0 0 0 0 0 0 0 0 0 0 0 0 0 0 0 0
0 0 0 0 0 0 0 0 0 0 0 0 0 0 0 0 0 0 0 0 0 0 0 0 0 0 0 0 0 0 0 0 0 0 0 0 0 0 0 0 0 0 0 0
0 0 0 -0 0 0 0 0 0 0 0 0 0 0 0 0 0 0 0 0 0 0 0 0 0 0 0 0 0 0 0 0 0 0 0 0 0 0 0 0 0 0 0 0
0 -0 0 0 0 0 0 0 0 -0 0 0 0 0 0 0 0 0 0 0 0 0 0 0 0 0 0 0 0 0 0 0 0 0 0 0 0 0 0 0 0 0 0 0
0 0 0 0 0 0 -0 0 0 0 0 0 0 0 0 0 0 0 0 0 0 0 0 0 0 0 0 0 0 0 0 0 0 0 0 0 0 0 0 0 0 0 0 0
0 0 0 0 0 0 0 0 0 0 0 0 0 0 0 0 0 0 0 0 0 0 0 0 0 0 0 0 0 0 0 0 0 0 0 0 0 0 0 0 0 0 0 0
0 0 0 0 0 -0 0 0 0 0 0 0 0 0 0 0 0 0 0 0 0 0 0 0 0 0 0 0 0 0 0 0 0 0 0 0 0 0 0 0 0 0 0 0
0 0 0 0 0 0 0 0 0 0 0 0 0 0 0 0 0 0 0 0 0 0 0 0 0 0 0 0 0 0 0 0 0 0 0 0 0 0 0 0 0 0 0 0
0 0 0 0 0 0 0 0 0 0 0 0 0 0 0 0 0 0 0 0 0 0 0 0 0 0 0 0 0 0 0 0 0 0 0 0 0 0 0 0 0 0 0 0
0 0 0 0 0 0 0 0 0 0 0 0 0 0 0 0 0 0 0 0 0 0 0 0 0 0 0 0 0 0 0 0 0 0 0 0 0 0 0 0 0 0 0 0
0 0 0 0 0 0 0 0 0 0 0 0 0 0 0 0 0 0 0 0 0 0 0 0 0 0 0 0 0 0 0 0 0 0 0 0 0 0 0 0 0 0 0 0
0 0 0 0 0 0 0 0 0 0 0 0 0 0 0 0 0 0 0 0 0 0 0 0 0 0 0 0 0 0 0 0 0 0 0 0 0 0 0 0 0 0 0 0
0 0 0 0 0 0 0 0 0 0 0 0 0 0 0 0 0 0 0 0 0 0 0 0 0 0 0 0 0 0 0 0 0 0 0 0 0 0 0 0 0 0 0 0
0 0 0 0 0 0 0 0 0 0 0 0 0 0 0 0 0 0 0 0 0 0 0 0 0 0 0 0 0 0 0 0 0 0 0 0 0 0 0 0 0 0 0 0
0 0 0 0 0 0 0 0 0 0 0 0 0 0 0 0 0 0 0 0 0 0 0 0 0 0 0 0 0 0 0 0 0 0 0 0 0 0 0 0 0 0 0 0
0 0 0 0 0 0 0 0 0 0 0 0 0 0 0 0 0 0 0 0 0 0 0 0 0 0 0 0 0 0 0 0 0 0 0 0 0 0 0 0 0 0 0 0
0 0 0 0 0 0 0 0 0 0 0 0 0 0 0 0 0 0 0 0 0 0 0 0 0 0 0 0 0 0 0 0 0 0 0 0 0 0 0 0 0 0 0 0
0 0 0 0 0 0 0 0 0 0 0 0 0 0 0 0 0 0 0 0 0 0 0 0 0 0 0 0 0 0 0 0 0 0 0 0 0 0 0 0 0 0 0 0
0 0 0 0 0 -0 -0 0 0 0 0 0 0 0 0 0 0 0 0 0 0 0 0 0 0 0 0 0 0 0 0 0 0 0 0 0 0 0 0 0 0 0 0 0
0 0 0 0 -0 0 0 0 0 0 0 0 0 0 0 0 0 0 0 0 0 0 0 0 0 0 0 0 0 0 0 0 0 0 0 0 0 0 0 0 0 0 0 0
0 0 0 0 0 0 0 0 0 0 0 0 0 0 0 0 0 0 0 0 0 0 0 0 0 0 0 0 0 0 0 0 0 0 0 0 0 0 0 0 0 0 0 0
Wind_Speed_500mb
11 11 12 26 16 18 6 14 19 20 18 19 18 23 21 28 16 15 27 21 22 19 19 14 12 16 24 32 37 42 52 62 64 47 28 25 34 27 26 38 33 29 30 42
13 11 28 17 11 15 24 18 12 11 6 19 15 21 15 12 10 15 27 22 39 27 26 18 9 13 20 27 32 42 48 60 59 47 34 27 30 29 30 27 25 31 38 43
7 25 45 9 22 26 11 19 12 18 12 4 21 9 10 4 9 11 9 38 34 27 32 19 12 14 16 23 31 35 44 57 54 53 41 27 28 31 29 31 29 32 36 39
14 37 23 6 12 19 8 12 39 34 8 4 7 5 2 4 6 15 19 39 31 25 30 23 17 18 13 25 22 29 39 51 51 55 45 38 39 42 39 32 32 34 35 40
25 11 16 15 10 9 11 8 16 9 14 9 14 6 6 6 3 10 22 29 26 37 33 26 18 12 15 15 17 24 37 49 47 54 42 36 37 38 35 34 35 37 39 42
17 17 6 14 9 15 19 20 19 9 7 7 8 4 8 10 11 6 16 17 45 49 38 27 20 10 10 9 15 25 36 45 44 51 39 35 39 40 41 42 41 42 44 49
12 11 12 13 12 11 10 12 6 6 9 5 5 6 15 8 12 14 12 58 62 51 40 29 21 10 9 10 16 25 35 42 42 46 39 31 36 42 43 43 44 45 51 57
2 12 7 11 11 7 6 12 10 8 8 5 10 6 10 7 27 18 31 60 55 47 38 27 15 13 9 10 16 25 33 40 38 41 42 29 33 37 41 44 44 41 46 52
6 8 7 7 3 12 6 6 8 13 8 9 5 10 9 12 12 16 31 55 56 48 28 20 18 14 9 12 15 24 33 35 33 41 40 30 31 36 34 41 42 40 42 46
11 6 6 8 23 14 6 4 10 8 5 3 5 7 8 5 10 16 29 53 51 37 34 26 18 11 10 13 17 23 29 28 27 35 46 30 32 36 34 37 41 36 43 49
9 5 8 8 3 7 9 8 11 9 8 9 5 11 12 15 15 18 19 53 53 44 39 31 20 11 7 8 13 22 27 21 25 28 42 38 36 34 35 38 40 35 42 50
8 9 6 9 8 8 9 12 10 10 7 5 9 9 7 21 29 45 34 58 53 47 42 30 20 12 7 11 11 18 26 14 22 22 32 37 39 37 34 35 41 38 42 45
11 3 5 13 13 9 5 8 9 10 6 1 10 8 16 31 36 53 57 63 59 55 43 30 20 12 8 8 8 15 26 10 19 16 23 30 33 39 36 35 38 37 39 40
9 6 14 12 13 7 5 5 7 12 8 4 4 12 10 14 21 43 44 63 60 50 37 30 21 11 7 8 7 15 25 15 11 14 17 23 27 36 38 34 35 32 36 37
9 7 8 10 6 1 8 5 16 10 16 11 19 26 31 28 31 53 48 60 57 47 37 28 21 10 4 6 5 14 19 19 15 14 11 18 20 24 32 33 30 30 30 34
6 3 1 9 9 12 6 11 16 12 13 14 16 8 25 51 43 44 39 66 56 52 43 33 20 11 5 5 4 13 13 11 17 8 10 16 15 23 27 31 26 29 28 29
6 7 6 1 7 12 9 7 11 7 7 20 15 15 24 12 40 51 54 66 61 54 44 34 21 10 4 4 5 8 7 10 18 5 8 18 23 18 26 28 24 27 27 30
11 9 5 4 7 3 10 7 17 23 9 14 15 15 41 50 47 41 73 68 56 48 41 33 23 11 7 4 6 4 2 13 15 10 8 17 23 12 17 30 26 25 24 30
3 10 5 7 6 7 1 8 10 14 6 5 16 23 41 42 31 25 47 48 44 35 30 21 14 5 6 5 6 4 3 14 13 8 6 13 18 16 16 22 17 22 23 25
13 14 8 4 4 8 11 3 53 23 3 6 29 34 45 31 7 9 44 39 30 22 20 18 10 6 6 4 4 6 11 18 12 4 4 9 16 20 11 14 18 26 29 29
9 8 8 7 4 6 5 2 12 12 13 24 22 21 28 9 15 52 44 32 17 12 16 14 5 1 4 6 3 6 10 18 11 10 6 11 7 15 13 12 14 22 25 29
5 5 5 2 6 2 5 5 9 14 30 30 20 18 20 18 41 48 40 31 26 18 17 13 7 7 5 9 7 8 11 13 13 10 8 4 2 6 12 15 10 18 24 30
4 10 11 14 11 12 28 17 19 39 46 32 29 27 24 40 47 46 40 33 23 15 17 15 17 15 11 10 13 14 14 14 15 15 9 5 6 12 15 20 16 21 26 32
4 8 4 5 12 28 51 20 39 38 40 38 30 32 33 39 42 43 39 33 26 24 23 16 27 20 15 16 17 19 21 18 18 20 18 13 17 20 18 19 23 29 27 32
8 26 9 4 25 21 5 15 41 42 38 37 37 39 40 42 48 45 42 37 28 21 27 21 21 23 18 20 23 23 23 23 22 23 23 19 18 16 19 20 22 26 27 25
18 12 9 10 6 19 19 18 23 20 40 43 44 43 42 42 40 49 44 38 30 19 24 23 25 24 21 26 27 25 27 28 27 29 28 24 19 13 15 22 27 27 25 24
Wind_Direction_500mb
334 32 276 268 161 211 120 97 107 113 120 69 98 122 147 159 150 192 160 150 157 163 125 114 65 51 39 30 26 27 21 22 18 33 66 70 63 54 53 56 64 40 22 16
1 275 260 260 195 198 87 107 100 66 359 104 157 150 158 151 176 193 145 151 167 160 159 145 79 68 47 36 33 22 21 24 23 36 44 51 60 56 52 44 36 23 14 11
161 261 290 295 97 101 136 149 172 146 147 110 160 134 155 109 173 181 186 163 176 175 166 148 137 91 70 41 25 18 23 23 25 26 28 48 52 49 45 37 30 21 15 15
251 300 253 212 98 114 112 165 142 157 159 152 77 119 160 191 238 232 215 179 194 174 162 150 137 117 55 23 25 15 21 22 26 24 32 39 46 48 44 43 38 30 23 17
275 284 109 84 140 118 186 105 116 113 82 77 343 80 200 306 127 197 204 204 213 174 160 141 117 67 26 29 15 17 21 24 28 23 36 47 52 43 38 37 38 35 23 16
248 256 147 153 103 95 110 84 65 65 101 50 270 96 297 166 177 170 179 139 155 157 150 132 105 77 51 68 28 18 20 28 29 24 35 44 39 36 39 35 30 24 20 12
338 333 348 89 77 53 93 82 20 349 23 222 353 26 241 187 188 184 140 145 155 151 144 131 120 107 100 60 24 22 24 31 28 24 29 41 41 37 33 25 18 16 15 13
196 344 48 307 115 164 85 136 152 237 171 222 2 265 269 256 174 167 136 154 153 148 143 129 111 101 93 40 35 21 22 28 25 22 25 37 36 33 31 23 15 14 16 17
165 256 315 356 64 102 325 345 192 111 65 88 240 282 351 67 92 154 158 155 154 148 137 132 129 115 77 47 40 20 12 21 25 21 29 31 31 27 25 22 18 17 16 12
212 56 343 306 53 28 84 230 30 11 98 63 290 291 236 173 174 165 178 150 148 145 146 148 144 118 69 38 16 4 11 27 30 27 27 31 28 25 26 20 15 16 14 9
128 118 323 34 60 204 11 20 55 105 129 151 167 265 204 190 163 174 158 154 156 157 158 151 143 126 61 18 4 6 12 38 34 30 28 31 24 23 23 22 19 21 14 16
182 122 125 232 249 230 163 168 126 113 275 100 130 273 343 175 179 174 161 160 162 165 158 149 142 128 68 19 13 10 12 44 37 30 28 23 22 21 20 21 23 22 17 23
180 89 75 348 355 1 140 172 142 106 84 308 123 258 16 145 149 163 159 162 165 163 151 149 145 133 82 41 13 17 19 46 34 32 24 17 20 17 18 19 18 20 19 22
86 113 148 169 209 177 310 223 101 119 98 202 195 145 241 165 165 173 161 162 161 160 158 158 151 131 81 48 22 25 23 63 37 17 19 15 22 14 13 14 14 18 17 22
96 135 152 218 287 13 227 109 160 126 167 133 184 164 192 189 192 190 170 168 160 158 166 174 162 142 95 63 46 21 23 47 38 5 16 16 25 9 359 4 9 14 16 21
29 235 103 39 13 45 23 357 118 123 126 94 136 185 188 201 199 184 171 171 169 171 177 173 170 153 136 46 55 16 26 37 11 20 22 7 358 351 2 11 12 14 12 15
105 111 69 116 349 53 358 309 166 134 127 134 150 212 149 166 192 196 177 178 177 177 175 174 176 167 146 78 60 35 25 15 2 342 4 354 352 351 16 7 10 14 14 11
138 108 103 155 24 43 255 347 120 98 91 123 99 150 175 187 194 202 182 177 176 174 172 176 180 171 150 117 83 69 56 347 351 354 341 349 355 344 9 10 6 15 21 15
54 122 99 129 163 259 27 160 140 119 14 337 121 121 124 135 139 131 173 176 172 174 178 179 176 161 128 130 103 56 349 342 345 334 321 343 359 14 355 349 360 5 4 4
62 70 108 96 158 206 245 86 127 108 34 224 127 145 146 136 106 223 159 161 164 175 180 178 184 162 57 93 117 1 353 346 4 18 319 333 345 351 3 340 351 354 354 352
356 17 79 18 336 309 323 136 122 88 234 176 142 146 163 163 198 164 164 164 169 183 189 192 231 117 34 19 51 303 321 339 0 11 329 318 327 353 4 30 6 349 346 342
242 147 105 63 28 247 13 346 135 186 154 163 155 159 147 147 154 166 173 175 177 183 198 225 234 235 258 353 347 330 316 337 355 351 3 23 348 314 348 346 339 354 341 347
280 184 185 173 207 252 300 264 169 168 163 167 164 168 168 167 172 180 190 186 186 195 197 222 224 232 246 308 327 335 343 341 344 336 331 314 306 316 314 306 319 316 334 339
199 199 173 122 256 278 260 226 176 181 182 172 173 177 184 187 189 195 195 191 189 187 201 217 221 230 271 283 294 309 328 329 329 332 327 299 295 304 303 302 306 312 328 330
202 155 154 274 291 307 205 191 189 196 194 182 181 190 195 194 200 201 200 199 204 208 211 231 242 240 267 268 292 289 303 316 316 322 326 315 310 308 314 301 305 319 315 320
185 169 152 209 190 125 67 61 204 223 218 205 197 196 200 199 209 207 210 209 207 216 226 235 229 243 268 268 279 275 284 297 304 308 316 317 302 306 297 308 310 314 312 313
Wind_Speed_850mb
11 11 12 26 16 18 6 14 19 20 18 19 18 23 21 28 16 15 27 21 22 19 19 14 12 16 24 32 37 42 52 62 64 47 28 25 34 27 26 38 33 29 30 42
13 11 28 17 11 15 24 18 12 11 6 19 15 21 15 12 10 15 27 22 39 27 26 18 9 13 20 27 32 42 48 60 59 47 34 27 30 29 30 27 25 31 38 43
7 25 45 9 22 26 11 19 12 18 12 4 21 9 10 4 9 11 9 38 34 27 32 19 12 14 16 23 31 35 44 57 54 53 41 27 28 31 29 31 29 32 36 39
14 37 23 6 12 19 8 12 39 34 8 4 7 5 2 4 6 15 19 39 31 25 30 23 17 18 13 25 22 29 39 51 51 55 45 38 39 42 39 32 32 34 35 40
25 11 16 15 10 9 11 8 16 9 14 9 14 6 6 6 3 10 22 29 26 37 33 26 18 12 15 15 17 24 37 49 47 54 42 36 37 38 35 34 35 37 39 42
17 17 6 14 9 15 19 20 19 9 7 7 8 4 8 10 11 6 16 17 45 49 38 27 20 10 10 9 15 25 36 45 44 51 39 35 39 40 41 42 41 42 44 49
12 11 12 13 12 11 10 12 6 6 9 5 5 6 15 8 12 14 12 58 62 51 40 29 21 10 9 10 16 25 35 42 42 46 39 31 36 42 43 43 44 45 51 57
2 12 7 11 11 7 6 12 10 8 8 5 10 6 10 7 27 18 31 60 55 47 38 27 15 13 9 10 16 25 33 40 38 41 42 29 33 37 41 44 44 41 46 52
6 8 7 7 3 12 6 6 8 13 8 9 5 10 9 12 12 16 31 55 56 48 28 20 18 14 9 12 15 24 33 35 33 41 40 30 31 36 34 41 42 40 42 46
11 6 6 8 23 14 6 4 10 8 5 3 5 7 8 5 10 16 29 53 51 37 34 26 18 11 10 13 17 23 29 28 27 35 46 30 32 36 34 37 41 36 43 49
9 5 8 8 3 7 9 8 11 9 8 9 5 11 12 15 15 18 19 53 53 44 39 31 20 11 7 8 13 22 27 21 25 28 42 38 36 34 35 38 40 35 42 50
8 9 6 9 8 8 9 12 10 10 7 5 9 9 7 21 29 45 34 58 53 47 42 30 20 12 7 11 11 18 26 14 22 22 32 37 39 37 34 35 41 38 42 45
11 3 5 13 13 9 5 8 9 10 6 1 10 8 16 31 36 53 57 63 59 55 43 30 20 12 8 8 8 15 26 10 19 16 23 30 33 39 36 35 38 37 39 40
9 6 14 12 13 7 5 5 7 12 8 4 4 12 10 14 21 43 44 63 60 50 37 30 21 11 7 8 7 15 25 15 11 14 17 23 27 36 38 34 35 32 36 37
9 7 8 10 6 1 8 5 16 10 16 11 19 26 31 28 31 53 48 60 57 47 37 28 21 10 4 6 5 14 19 19 15 14 11 18 20 24 32 33 30 30 30 34
6 3 1 9 9 12 6 11 16 12 13 14 16 8 25 51 43 44 39 66 56 52 43 33 20 11 5 5 4 13 13 11 17 8 10 16 15 23 27 31 26 29 28 29
6 7 6 1 7 12 9 7 11 7 7 20 15 15 24 12 40 51 54 66 61 54 44 34 21 10 4 4 5 8 7 10 18 5 8 18 23 18 26 28 24 27 27 30
11 9 5 4 7 3 10 7 17 23 9 14 15 15 41 50 47 41 73 68 56 48 41 33 23 11 7 4 6 4 2 13 15 10 8 17 23 12 17 30 26 25 24 30
3 10 5 7 6 7 1 8 10 14 6 5 16 23 41 42 31 25 47 48 44 35 30 21 14 5 6 5 6 4 3 14 13 8 6 13 18 16 16 22 17 22 23 25
13 14 8 4 4 8 11 3 53 23 3 6 29 34 45 31 7 9 44 39 30 22 20 18 10 6 6 4 4 6 11 18 12 4 4 9 16 20 11 14 18 26 29 29
9 8 8 7 4 6 5 2 12 12 13 24 22 21 28 9 15 52 44 32 17 12 16 14 5 1 4 6 3 6 10 18 11 10 6 11 7 15 13 12 14 22 25 29
5 5 5 2 6 2 5 5 9 14 30 30 20 18 20 18 41 48 40 31 26 18 17 13 7 7 5 9 7 8 11 13 13 10 8 4 2 6 12 15 10 18 24 30
4 10 11 14 11 12 28 17 19 39 46 32 29 27 24 40 47 46 40 33 23 15 17 15 17 15 11 10 13 14 14 14 15 15 9 5 6 12 15 20 16 21 26 32
4 8 4 5 12 28 51 20 39 38 40 38 30 32 33 39 42 43 39 33 26 24 23 16 27 20 15 16 17 19 21 18 18 20 18 13 17 20 18 19 23 29 27 32
8 26 9 4 25 21 5 15 41 42 38 37 37 39 40 42 48 45 42 37 28 21 27 21 21 23 18 20 23 23 23 23 22 23 23 19 18 16 19 20 22 26 27 25
18 12 9 10 6 19 19 18 23 20 40 43 44 43 42 42 40 49 44 38 30 19 24 23 25 24 21 26 27 25 27 28 27 29 28 24 19 13 15 22 27 27 25 24
Wind_Direction_850mb
334 32 276 268 161 211 120 97 107 113 120 69 98 122 147 159 150 192 160 150 157 163 125 114 65 51 39 30 26 27 21 22 18 33 66 70 63 54 53 56 64 40 22 16
1 275 260 260 195 198 87 107 100 66 359 104 157 150 158 151 176 193 145 151 167 160 159 145 79 68 47 36 33 22 21 24 23 36 44 51 60 56 52 44 36 23 14 11
161 261 290 295 97 101 136 149 172 146 147 110 160 134 155 109 173 181 186 163 176 175 166 148 137 91 70 41 25 18 23 23 25 26 28 48 52 49 45 37 30 21 15 15
251 300 253 212 98 114 112 165 142 157 159 152 77 119 160 191 238 232 215 179 194 174 162 150 137 117 55 23 25 15 21 22 26 24 32 39 46 48 44 43 38 30 23 17
275 284 109 84 140 118 186 105 116 113 82 77 343 80 200 306 127 197 204 204 213 174 160 141 117 67 26 29 15 17 21 24 28 23 36 47 52 43 38 37 38 35 23 16
248 256 147 153 103 95 110 84 65 65 101 50 270 96 297 166 177 170 179 139 155 157 150 132 105 77 51 68 28 18 20 28 29 24 35 44 39 36 39 35 30 24 20 12
338 333 348 89 77 53 93 82 20 349 23 222 353 26 241 187 188 184 140 145 155 151 144 131 120 107 100 60 24 22 24 31 28 24 29 41 41 37 33 25 18 16 15 13
196 344 48 307 115 164 85 136 152 237 171 222 2 265 269 256 174 167 136 154 153 148 143 129 111 101 93 40 35 21 22 28 25 22 25 37 36 33 31 23 15 14 16 17
165 256 315 356 64 102 325 345 192 111 65 88 240 282 351 67 92 154 158 155 154 148 137 132 129 115 77 47 40 20 12 21 25 21 29 31 31 27 25 22 18 17 16 12
212 56 343 306 53 28 84 230 30 11 98 63 290 291 236 173 174 165 178 150 148 145 146 148 144 118 69 38 16 4 11 27 30 27 27 31 28 25 26 20 15 16 14 9
128 118 323 34 60 204 11 20 55 105 129 151 167 265 204 190 163 174 158 154 156 157 158 151 143 126 61 18 4 6 12 38 34 30 28 31 24 23 23 22 19 21 14 16
182 122 125 232 249 230 163 168 126 113 275 100 130 273 343 175 179 174 161 160 162 165 158 149 142 128 68 19 13 10 12 44 37 30 28 23 22 21 20 21 23 22 17 23
180 89 75 348 355 1 140 172 142 106 84 308 123 258 16 145 149 163 159 162 165 163 151 149 145 133 82 41 13 17 19 46 34 32 24 17 20 17 18 19 18 20 19 22
86 113 148 169 209 177 310 223 101 119 98 202 195 145 241 165 165 173 161 162 161 160 158 158 151 131 81 48 22 25 23 63 37 17 19 15 22 14 13 14 14 18 17 22
96 135 152 218 287 13 227 109 160 126 167 133 184 164 192 189 192 190 170 168 160 158 166 174 162 142 95 63 46 21 23 47 38 5 16 16 25 9 359 4 9 14 16 21
29 235 103 39 13 45 23 357 118 123 126 94 136 185 188 201 199 184 171 171 169 171 177 173 170 153 136 46 55 16 26 37 11 20 22 7 358 351 2 11 12 14 12 15
105 111 69 116 349 53 358 309 166 134 127 134 150 212 149 166 192 196 177 178 177 177 175 174 176 167 146 78 60 35 25 15 2 342 4 354 352 351 16 7 10 14 14 11
138 108 103 155 24 43 255 347 120 98 91 123 99 150 175 187 194 202 182 177 176 174 172 176 180 171 150 117 83 69 56 347 351 354 341 349 355 344 9 10 6 15 21 15
54 122 99 129 163 259 27 160 140 119 14 337 121 121 124 135 139 131 173 176 172 174 178 179 176 161 128 130 103 56 349 342 345 334 321 343 359 14 355 349 360 5 4 4
62 70 108 96 158 206 245 86 127 108 34 224 127 145 146 136 106 223 159 161 164 175 180 178 184 162 57 93 117 1 353 346 4 18 319 333 345 351 3 340 351 354 354 352
356 17 79 18 336 309 323 136 122 88 234 176 142 146 163 163 198 164 164 164 169 183 189 192 231 117 34 19 51 303 321 339 0 11 329 318 327 353 4 30 6 349 346 342
242 147 105 63 28 247 13 346 135 186 154 163 155 159 147 147 154 166 173 175 177 183 198 225 234 235 258 353 347 330 316 337 355 351 3 23 348 314 348 346 339 354 341 347
280 184 185 173 207 252 300 264 169 168 163 167 164 168 168 167 172 180 190 186 186 195 197 222 224 232 246 308 327 335 343 341 344 336 331 314 306 316 314 306 319 316 334 339
199 199 173 122 256 278 260 226 176 181 182 172 173 177 184 187 189 195 195 191 189 187 201 217 221 230 271 283 294 309 328 329 329 332 327 299 295 304 303 302 306 312 328 330
202 155 154 274 291 307 205 191 189 196 194 182 181 190 195 194 200 201 200 199 204 208 211 231 242 240 267 268 292 289 303 316 316 322 326 315 310 308 314 301 305 319 315 320
185 169 152 209 190 125 67 61 204 223 218 205 197 196 200 199 209 207 210 209 207 216 226 235 229 243 268 268 279 275 284 297 304 308 316 317 302 306 297 308 310 314 312 313